Regional Weather Roundup
Issued by NWS

Home | Current Version | Previous Version | Graphics & Text | Print | Product List | Glossary On
Versions: 1 2 3 4 5 6 7 8 9 10 11 12 13 14 15 16 17 18 19 20 21 22 23 24 25 26 27 28 29 30 31 32 33 34 35 36 37 38 39 40 41 42 43 44 45 46 47 48 49 50
000
ASUS43 KDMX 220901
RWRIA

WEATHER ROUNDUP FOR IOWA
NATIONAL WEATHER SERVICE DES MOINES IA
400 AM CDT MON MAY 22 2017

NOTE: "FAIR" INDICATES FEW OR NO CLOUDS BELOW 12,000 FEET WITH NO
SIGNIFICANT WEATHER AND/OR OBSTRUCTIONS TO VISIBILITY.

* - THESE STATIONS ARE NOT NWS STATIONS...THUS NOT UNDER NWS
QUALITY CONTROL.  THEY ALSO DO NOT REPORT WEATHER SUCH
AS PRECIPITATION OR FOG.

IAZ001>003-012>014-020>022-031>034-043>046-221000-
   NORTHWEST IOWA

CITY           SKY/WX    TMP DP  RH WIND       PRES   REMARKS
CARROLL *      PTCLDY    52  46  82 SW16      29.96F
CHEROKEE *     CLOUDY    51  46  84 SW7       29.95F
DENISON *      CLOUDY    52  45  76 S5        29.99F
LE MARS *      CLOUDY    52  45  76 S12       29.95F
ORANGE CITY *  CLOUDY    52  46  82 SW9       29.94F
SHELDON *      CLOUDY    52  45  76 SW21        N/A
SIOUX CITY     LGT RAIN  54  46  74 S8        29.96F
SPENCER        CLOUDY    51  44  77 SW14      29.92F
STORM LAKE *   MOCLDY    50  43  76 SW18      29.95F
$$

IAZ055>058-069>071-079>083-090>094-221000-
   SOUTHWEST IOWA

CITY           SKY/WX    TMP DP  RH WIND       PRES   REMARKS
ATLANTIC *     PTCLDY    48  45  87 S7        30.00F
AUDUBON *      CLEAR     52  45  76 S6        29.99F
CLARINDA *     CLEAR     45  45 100 SW5       30.06S
COUNCIL BLFS * CLEAR     55  45  67 SW14      29.99F
CRESTON *      CLEAR     48  45  87 S12       30.03F
HARLAN  *      CLOUDY    48  46  93 S7        30.02F
LAMONI         CLEAR     49  44  83 S9        30.05F
RED OAK *      CLEAR     46  45  93 S5        30.02F
SHENANDOAH *   CLEAR     50  45  81 SW3       30.03F
$$

IAZ047>049-059>061-072>074-084-221000-
   CENTRAL IOWA

CITY           SKY/WX    TMP DP  RH WIND       PRES   REMARKS
AMES           CLEAR     48  43  82 SW10      29.97F
ANKENY *       CLEAR     52  43  71 SW8       30.00F
BOONE *        CLEAR     48  45  87 SW10      29.96F
DES MOINES     CLEAR     51  43  74 SW12      29.99F
GRINNELL*      PTCLDY    46  42  87 SW7       30.01F
MARSHALLTOWN   CLEAR     44  42  93 S7        29.97F
NEWTON *       CLEAR     48  43  81 SW8       29.98F
PELLA *        CLEAR     47  42  84 SW6       30.02F
PERRY *          N/A     50  45  82 SW14      29.98F
$$

IAZ004>006-015-016-023>025-035-036-221000-
   NORTH CENTRAL IOWA

CITY           SKY/WX    TMP DP  RH WIND       PRES   REMARKS
ALGONA *       PTCLDY    46  45  93 SW10      29.93F
CLARION *      CLEAR     43  43 100 S8        29.94F
ESTHERVILLE    PTCLDY    45  42  89 SW12      29.91F
FORT DODGE *   MOCLDY    46  43  87 SW8       29.95F
MASON CITY     CLEAR     43  39  86 SW7       29.95F
FOREST CITY *    N/A     37  32  81 CALM      29.94F
WEBSTER CITY * PTCLDY    48  43  81 SW12      29.93F
IOWA FALLS *     N/A     42  40  93 CALM      29.97S
$$

IAZ007>011-017>019-026>030-037>042-050>054-066-221000-
   NORTHEAST IOWA

CITY           SKY/WX    TMP DP  RH WIND       PRES   REMARKS
CEDAR RAPIDS   CLEAR     44  43  96 S6        30.00F
CHARLES CITY * CLEAR     43  43 100 S6        29.96F
CLINTON *      CLEAR     43  41  93 W8        30.02F
DECORAH *      CLEAR     45  41  87 W5        29.95S
DUBUQUE        CLEAR     41  40  96 SW6       30.00R
MONTICELLO *   CLEAR     45  41  87 CALM      30.00F
OELWEIN *      CLEAR     41  41 100 S6        29.98F
WATERLOO       CLEAR     45  41  86 SE3       29.97F
$$

IAZ064-065-067-068-078-221000-
   EAST CENTRAL IOWA

CITY           SKY/WX    TMP DP  RH WIND       PRES   REMARKS
DAVENPORT      CLEAR     47  41  80 SW7       30.02F
IOWA CITY      CLEAR     44  41  89 CALM      30.04S
MT. PLEASANT * CLEAR     44  43  97 S8        30.05F
MUSCATINE *    CLEAR     46  43  87 S6        30.04S
QUAD CITIES    CLEAR     47  41  80 SW3       30.03F
$$

IAZ062-063-075>077-085>089-095>099-221000-
   SOUTHEAST IOWA

CITY           SKY/WX    TMP DP  RH WIND       PRES   REMARKS
BURLINGTON     CLEAR     47  46  97 SW6       30.05F
FAIRFIELD *    CLEAR     46  43  87 S7        30.03F
FORT MADISON * CLEAR     46  45  93 S6        30.06F
KEOKUK *       CLEAR     48  46  93 SW7       30.06F
OSKALOOSA *      N/A     44  42  93 S7        30.02F
OTTUMWA        CLEAR     46  44  93 S10       30.02F
WASHINGTON *   CLEAR     45  43  93 SW6       30.04F
$$

ABBREVIATIONS USED IN REMARKS
   TC - TEMPERATURES IN CELSIUS
  WCI - WIND CHILL INDEX
   HX - HEAT INDEX
  VSB - VISIBILITY
$$





USA.gov is the U.S. government's official web portal to all federal, state and local government web resources and services.